CZ-2F R/B, 67690

Orbit data source: Space-Track

CZ-2F R/B, 67690 is space debris in LEO originally from a launch on Sat, 07 Feb 2026 UTC launched from the Jiuquan Satellite Launch Center, China (JSC). Debris objects in space refer to the collection of defunct objects orbiting the Earth. Examples of debris include non-operational satellites, rocket bodies, and fragments generated from explosions, collisions, or faulty payload assembly.

Loading next visibility...
Identifier
67690, 2026-024B
Orbit
LEO
Country
Flag of CNCN / PRC
Related business
Manufacturer
CALT?
Mission
Spacecraft
Bus & Motor
CZ-2F, Unknown motor
Mass
5,500 kg wet, 5,500 kg dry
Launch date (UTC)
2026-02-07 (2 months ago)
Launch vehicle
Unknown
Launch site
Jiuquan Satellite Launch Center, China (JSC)
Object type
Payload
Rocket body
Debris
Shape & HBR
Unknown shape, 8.0 m
Radar Cross Section
RCS unknown

Expand to show TLE details & history
Last TLE update: 13 hours ago

TLE from 13 hours ago
0 CZ-2F R/B
1 67690U 26024B   26103.98636886  .00010209  00000-0  18683-3 0  9999
2 67690  49.9861 197.3769 0170163  61.4437 300.3532 15.35644866 10119
Epoch: 2026-04-13T23:40Z
TLE epoch observation values (Epoch: 2026-04-13T23:40:22.269Z)
Latitude
-0.00006°
Longitude
0.11496°
Altitude
402.265 km
Speed
7.703 km/s
True Right ascension
13h 09m 30s
True Declination
0° 00' 00"
Sunlit
Object was in full shadow at epoch
Visualization orbit readout
Latitude
Unknown
Longitude
Unknown
Altitude
Unknown
Speed
Unknown
Apparent Right ascension
Unknown
Apparent Declination
Unknown
Sunlit
N/A
Visualization observer readout
Local Sidereal Time
19:33:39
Azimuth
Unknown
Elevation
Unknown
Doppler factor
Unknown
Orbital elements
Apogee altitude
576.14 km
Perigee altitude
343.428 km
Semi-major axis
6,837.921 km
Eccentricity
0.01702
Inclination
49.9861°
RAAN
197.3769°
Arg. of periapsis
61.4437°
True anomaly
298.65253°
Mean anomaly
300.3532°
Eccentric anomaly
299.50468°
Mean motion
3.83846 °/min
Orbital period
93.79 mins
BSTAR
0.00018683
Loading maneuver chart data...
Computing Atmospheric mass density...
Loading historical data...
Loading historical data...
Loading historical data...
Loading historical data...
Loading historical data...
Loading historical data...
Loading historical data...

Documentation

Showing up to 5 results
|